,�O�C���x,�����t���O,�O�C���x,�����t���O,�󒲎����x,�����t���O,�󒲎����x,�����t���O,��󒲎����x,�����t���O,����,�����t���O
2003/5/1 0:00,16.8,0,60,0,23.9,0,49,0,23.1,0,20.5,0
2003/5/1 0:15,16.6,0,61,0,23.8,0,49,0,23.1,0,20.6,0
2003/5/1 0:30,16.5,0,62,0,23.8,0,49,0,23.1,0,20.7,0
2003/5/1 0:45,16.4,0,62,0,23.8,0,48.9,0,23,0,20.8,0
2003/5/1 1:00,16.3,0,63,0,23.7,0,48.9,0,23,0,20.8,0
2003/5/1 1:15,16.3,0,63,0,23.7,0,49.1,0,23,0,20,0
2003/5/1 1:30,16.2,0,63,0,23.7,0,49.1,0,22.9,0,20.1,0
2003/5/1 1:45,16.1,0,64,0,23.7,0,49,0,22.9,0,20.2,0
2003/5/1 2:00,16,0,64,0,23.7,0,48.9,0,22.9,0,19.3,0
2003/5/1 2:15,16,0,65,0,23.7,0,48.9,0,22.9,0,19.3,0
2003/5/1 2:30,16,0,65,0,23.7,0,48.8,0,22.8,0,19.4,0
2003/5/1 2:45,15.8,0,65,0,23.6,0,48.8,0,22.8,0,19.5,0
2003/5/1 3:00,15.8,0,65,0,23.6,0,48.9,0,22.8,0,19.6,0
2003/5/1 3:15,15.7,0,65,0,23.6,0,48.9,0,22.7,0,19.7,0
2003/5/1 3:30,15.5,0,66,0,23.5,0,48.9,0,22.7,0,19.8,0
2003/5/1 3:45,15.4,0,67,0,23.4,0,48.9,0,22.7,0,19.9,0
2003/5/1 4:00,15.3,0,67,0,23.4,0,48.9,0,22.6,0,19.9,0
2003/5/1 4:15,15.3,0,68,0,23.4,0,48.9,0,22.6,0,20,0
2003/5/1 4:30,15.2,0,69,0,23.4,0,48.9,0,22.5,0,20.1,0
2003/5/1 4:45,15.1,0,69,0,23.3,0,49,0,22.5,0,20.2,0
2003/5/1 5:00,15.1,0,70,0,23.3,0,49.1,0,22.5,0,20.3,0
2003/5/1 5:15,15.1,0,69,0,23.2,0,49.1,0,22.5,0,20.4,0
2003/5/1 5:30,15,0,70,0,23.2,0,49.1,0,22.4,0,19.4,0
2003/5/1 5:45,14.9,0,69,0,23.3,0,49.4,0,22.4,0,19.5,0
2003/5/1 6:00,15,0,69,0,23.3,0,49.4,0,22.3,0,19.6,0
2003/5/1 6:15,15.1,0,68,0,23.4,0,49.5,0,22.4,0,19.7,0
2003/5/1 6:30,15,0,69,0,23.4,0,51.2,0,22.4,0,19.7,0
2003/5/1 6:45,15.3,0,68,0,23.5,0,50.4,0,22.5,0,19.8,0
2003/5/1 7:00,15.6,0,67,0,23.5,0,50,0,22.6,0,19.9,0
2003/5/1 7:15,16.1,0,64,0,23.6,0,50.3,0,22.7,0,18,0
2003/5/1 7:30,16.6,0,64,0,23.6,0,50.3,0,22.9,0,18.2,0
2003/5/1 7:45,17.4,0,60,0,23.7,0,50.2,0,23.1,0,18.3,0
2003/5/1 8:00,18.3,0,56,0,23.7,0,50.2,0,23.3,0,18.4,0
2003/5/1 8:15,20.9,0,49,0,23.8,0,50.3,0,23.4,0,17.7,0
2003/5/1 8:30,24.1,0,38,0,23.8,0,50.3,0,23.5,0,17.8,0
2003/5/1 8:45,26.4,0,34,0,23.9,0,50.3,0,23.5,0,17.8,0
2003/5/1 9:00,28.7,0,28,0,23.9,0,50.1,0,23.5,0,17.9,0
2003/5/1 9:15,30.1,0,25,0,23.8,0,49.5,0,23.5,0,18,0
2003/5/1 9:30,30.8,0,21,0,23.7,0,49.2,0,23.5,0,18.2,0
2003/5/1 9:45,31.8,0,21,0,23.7,0,49,0,23.5,0,19.3,0
2003/5/1 10:00,32.5,0,18,0,23.7,0,49.2,0,23.4,0,19.4,0
2003/5/1 10:15,32.6,0,19,0,23.7,0,49.1,0,23.4,0,19.5,0
2003/5/1 10:30,26.3,0,29,0,23.7,0,48.8,0,23.3,0,19.5,0
2003/5/1 10:45,23.7,0,33,0,23.6,0,48.5,0,23.3,0,19.6,0
2003/5/1 11:00,22.8,0,34,0,23.6,0,48.2,0,23.3,0,19.7,0
2003/5/1 11:15,22.6,0,37,0,23.6,0,48,0,23.2,0,19.8,0
2003/5/1 11:30,22.6,0,37,0,23.5,0,47.9,0,23.2,0,19.8,0
2003/5/1 11:45,22.5,0,44,0,23.5,0,48,0,23.2,0,19.9,0
2003/5/1 12:00,22.2,0,48,0,23.5,0,48.1,0,23.1,0,20,0
2003/5/1 12:15,21.7,0,48,0,23.5,0,48.3,0,23.2,0,20,0
2003/5/1 12:30,21.6,0,49,0,23.5,0,48.5,0,23.2,0,20.1,0
2003/5/1 12:45,21.4,0,50,0,23.5,0,48.6,0,23.2,0,20.2,0
2003/5/1 13:00,21.2,0,49,0,23.5,0,48.7,0,23.2,0,20.3,0
2003/5/1 13:15,21.1,0,55,0,23.5,0,48.9,0,23.2,0,20.3,0
2003/5/1 13:30,21.1,0,55,0,23.5,0,49.1,0,23.2,0,20.4,0
2003/5/1 13:45,21.1,0,55,0,23.5,0,49.4,0,23.2,0,20.5,0
2003/5/1 14:00,21,0,55,0,23.5,0,49.5,0,23.2,0,20.6,0
2003/5/1 14:15,20.7,0,56,0,23.5,0,49.7,0,23.2,0,20.6,0
2003/5/1 14:30,20.9,0,56,0,23.5,0,49.9,0,23.2,0,20.7,0
2003/5/1 14:45,20.9,0,55,0,23.5,0,50.1,0,23.2,0,20.8,0
2003/5/1 15:00,20.8,0,54,0,23.6,0,50.2,0,23.2,0,20.8,0
2003/5/1 15:15,20.8,0,54,0,23.6,0,50.2,0,23.2,0,20.9,0
2003/5/1 15:30,20.8,0,55,0,23.6,0,50.2,0,23.2,0,20.9,0
2003/5/1 15:45,20.8,0,56,0,23.6,0,50.2,0,23.2,0,21,0
2003/5/1 16:00,20.8,0,54,0,23.7,0,50.3,0,23.3,0,20.6,0
2003/5/1 16:15,20.9,0,54,0,23.8,0,50.5,0,23.3,0,20.7,0
2003/5/1 16:30,20.8,0,54,0,23.9,0,50.6,0,23.3,0,20.8,0
2003/5/1 16:45,20.8,0,55,0,24,0,50.8,0,23.3,0,20.8,0
2003/5/1 17:00,20.8,0,56,0,24.1,0,50.9,0,23.3,0,20.9,0
2003/5/1 17:15,20.6,0,57,0,24.3,0,51,0,23.3,0,21,0
2003/5/1 17:30,20.6,0,58,0,24.4,0,50.9,0,23.3,0,20.9,0
2003/5/1 17:45,20.5,0,57,0,24.5,0,50.9,0,23.3,0,21,0
2003/5/1 18:00,20.4,0,58,0,24.6,0,50.8,0,23.4,0,21.1,0
2003/5/1 18:15,20.2,0,57,0,24.6,0,50.8,0,23.5,0,21.1,0
2003/5/1 18:30,20.2,0,57,0,25.2,0,49.1,0,23.8,0,21.2,0
2003/5/1 18:45,20.2,0,58,0,24.9,0,49.2,0,24.1,0,21.3,0
2003/5/1 19:00,20,0,57,0,25.2,0,49.3,0,23.9,0,21.3,0
2003/5/1 19:15,20,0,58,0,25,0,49,0,23.8,0,21.4,0
2003/5/1 19:30,19.8,0,59,0,24.8,0,49.4,0,23.7,0,20.2,0
2003/5/1 19:45,19.6,0,58,0,24.8,0,49.3,0,23.7,0,20.3,0
2003/5/1 20:00,19.5,0,58,0,24.9,0,49.4,0,23.7,0,20.4,0
2003/5/1 20:15,19.5,0,58,0,24.6,0,49.6,0,23.7,0,20.5,0
2003/5/1 20:30,19.7,0,58,0,24.5,0,50,0,23.7,0,20.6,0
2003/5/1 20:45,19.8,0,57,0,24.5,0,50,0,23.6,0,20.7,0
2003/5/1 21:00,19.8,0,59,0,24.5,0,50,0,23.6,0,20.7,0
2003/5/1 21:15,19.7,0,60,0,24.6,0,50.4,0,23.5,0,18.9,0
2003/5/1 21:30,19.6,0,61,0,24.6,0,51.7,0,23.5,0,19,0
2003/5/1 21:45,19.7,0,63,0,24.6,0,51.4,0,23.5,0,19.1,0
2003/5/1 22:00,19.5,0,62,0,24.5,0,51.7,0,23.5,0,19.2,0
2003/5/1 22:15,19.1,0,63,0,24.5,0,52.7,0,23.6,0,19.3,0
2003/5/1 22:30,19.1,0,64,0,24.3,0,54.1,0,23.6,0,19.4,0
2003/5/1 22:45,19,0,64,0,24.3,0,53.3,0,23.6,0,19.6,0
2003/5/1 23:00,18.8,0,64,0,24.4,0,52.8,0,23.6,0,19.7,0
2003/5/1 23:15,18.7,0,64,0,24.4,0,52.5,0,23.6,0,19.8,0
2003/5/1 23:30,18.7,0,63,0,24.4,0,52,0,23.5,0,20,0
2003/5/1 23:45,18.5,0,63,0,24.6,0,51.4,0,23.4,0,20.1,0
2003/5/2 0:00,18.3,0,63,0,24.6,0,51.2,0,23.4,0,20.2,0
2003/5/2 0:15,18.1,0,63,0,24.4,0,51.1,0,23.3,0,20.3,0
2003/5/2 0:30,18.1,0,60,0,24.3,0,51,0,23.3,0,20.4,0
2003/5/2 0:45,18.1,0,57,0,24.1,0,50.8,0,23.2,0,20.5,0
2003/5/2 1:00,18.1,0,55,0,24.1,0,50.7,0,23.2,0,20.1,0
2003/5/2 1:15,18.1,0,57,0,23.9,0,50.4,0,23.2,0,20.2,0
2003/5/2 1:30,18,0,59,0,23.8,0,50.4,0,23.1,0,20.3,0
2003/5/2 1:45,17.9,0,60,0,23.8,0,50.4,0,23.1,0,20.4,0
2003/5/2 2:00,17.9,0,60,0,23.7,0,50.6,0,23,0,20.5,0
2003/5/2 2:15,17.9,0,60,0,23.6,0,50.8,0,23,0,20.6,0
2003/5/2 2:30,17.7,0,59,0,23.6,0,50.8,0,22.9,0,20.7,0
2003/5/2 2:45,17.5,0,59,0,23.6,0,50.8,0,22.9,0,20.8,0
2003/5/2 3:00,17.4,0,59,0,23.5,0,50.8,0,22.9,0,20.9,0
2003/5/2 3:15,17.3,0,60,0,23.4,0,50.7,0,22.8,0,21,0
2003/5/2 3:30,17.3,0,59,0,23.4,0,50.7,0,22.8,0,20.2,0
2003/5/2 3:45,17.3,0,59,0,23.4,0,50.7,0,22.8,0,20.3,0
2003/5/2 4:00,17.2,0,60,0,23.3,0,50.6,0,22.8,0,20.3,0
2003/5/2 4:15,17,0,61,0,23.3,0,50.5,0,22.7,0,20.4,0
2003/5/2 4:30,17,0,61,0,23.3,0,50.5,0,22.7,0,20.5,0
2003/5/2 4:45,17,0,61,0,23.2,0,50.5,0,22.7,0,20.6,0
2003/5/2 5:00,17.1,0,61,0,23.2,0,50.5,0,22.6,0,20.7,0
2003/5/2 5:15,17.1,0,61,0,23.2,0,50.5,0,22.6,0,20.8,0
2003/5/2 5:30,17,0,61,0,23.2,0,50.6,0,22.6,0,20.9,0
2003/5/2 5:45,17,0,61,0,23.2,0,50.6,0,22.6,0,20.9,0
2003/5/2 6:00,16.9,0,61,0,23.1,0,50.6,0,22.6,0,21,0
2003/5/2 6:15,17,0,62,0,23.1,0,50.7,0,22.6,0,20,0
2003/5/2 6:30,17.2,0,61,0,23.1,0,51,0,22.6,0,20.1,0
2003/5/2 6:45,17.6,0,59,0,23.1,0,51,0,22.7,0,20.2,0
2003/5/2 7:00,18,0,59,0,23.2,0,53.7,0,22.8,0,20.3,0
2003/5/2 7:15,18.4,0,57,0,23.3,0,53.1,0,23,0,18.8,0
2003/5/2 7:30,19,0,55,0,23.3,0,52.7,0,23.1,0,18.9,0
2003/5/2 7:45,19.8,0,53,0,23.5,0,52.3,0,23.3,0,19,0
2003/5/2 8:00,20.8,0,50,0,23.8,0,51.6,0,23.4,0,19.1,0
2003/5/2 8:15,23.6,0,43,0,23.8,0,51.6,0,23.5,0,17.9,0
2003/5/2 8:30,26.2,0,35,0,24,0,51,0,23.6,0,17.7,0
2003/5/2 8:45,28.6,0,30,0,24.1,0,50.7,0,23.7,0,18.2,0
2003/5/2 9:00,30.5,0,26,0,24.2,0,50.4,0,23.8,0,17.9,0
2003/5/2 9:15,31.5,0,24,0,23.9,0,49.9,0,23.8,0,18,0
2003/5/2 9:30,32.7,0,21,0,23.8,0,49.5,0,23.7,0,18.1,0
2003/5/2 9:45,33.4,0,20,0,23.5,0,48.4,0,23.7,0,18.3,0
2003/5/2 10:00,33.6,0,20,0,23.3,0,48.6,0,23.6,0,18.7,0
2003/5/2 10:15,34.2,0,19,0,23.3,0,48.5,0,23.6,0,18.8,0
2003/5/2 10:30,28.4,0,28,0,23.2,0,48.3,0,23.5,0,18.9,0
2003/5/2 10:45,25.8,0,32,0,23.1,0,47.7,0,23.5,0,19,0
2003/5/2 11:00,24.9,0,34,0,23.2,0,47.6,0,23.4,0,19.1,0
2003/5/2 11:15,24.9,0,36,0,23.1,0,47,0,23.4,0,19.2,0
2003/5/2 11:30,24.3,0,36,0,23.2,0,47.4,0,23.4,0,19.1,0
2003/5/2 11:45,24.3,0,37,0,23.2,0,46.8,0,23.4,0,19.2,0
2003/5/2 12:00,24.2,0,37,0,23.1,0,46.8,0,23.4,0,19.3,0
2003/5/2 12:15,24,0,38,0,23.1,0,46.2,0,23.4,0,19.4,0
2003/5/2 12:30,23.8,0,44,0,22.9,0,48.1,0,23.3,0,19.5,0
2003/5/2 12:45,23.6,0,44,0,22.7,0,51.5,0,23.2,0,19.5,0
2003/5/2 13:00,23.4,0,46,0,22.6,0,52.9,0,23.2,0,19.5,0
2003/5/2 13:15,23.2,0,44,0,22.5,0,51.1,0,23.2,0,19.5,0
2003/5/2 13:30,23.2,0,42,0,22.6,0,49.1,0,23.1,0,19.6,0
2003/5/2 13:45,23.2,0,40,0,22.7,0,46.4,0,23,0,19.6,0
2003/5/2 14:00,23.1,0,41,0,22.9,0,46.5,0,22.9,0,19.7,0
2003/5/2 14:15,23,0,42,0,23,0,46.9,0,22.9,0,19.8,0
2003/5/2 14:30,23,0,48,0,23.2,0,47.3,0,22.9,0,19.8,0
2003/5/2 14:45,22.8,0,50,0,23.2,0,50.6,0,23,0,19.9,0
2003/5/2 15:00,22.7,0,48,0,23.3,0,50.4,0,23,0,19.9,0
2003/5/2 15:15,22.8,0,49,0,23.4,0,50.1,0,23.1,0,20,0
2003/5/2 15:30,22.8,0,48,0,23.5,0,49.9,0,23.1,0,20.1,0
2003/5/2 15:45,22.8,0,48,0,23.7,0,49.7,0,23.2,0,20.3,0
2003/5/2 16:00,22.7,0,47,0,23.9,0,49.5,0,23.2,0,20.4,0
2003/5/2 16:15,22.7,0,47,0,24.1,0,49,0,23.3,0,20.5,0
2003/5/2 16:30,22.7,0,45,0,24.5,0,48.1,0,23.3,0,20.6,0
2003/5/2 16:45,22.6,0,47,0,25.3,0,47.2,0,23.4,0,20.7,0
2003/5/2 17:00,22.7,0,46,0,22.8,0,94.2,0,23.4,0,20.8,0
2003/5/2 17:15,22.6,0,46,0,21.9,0,99.8,0,23.4,0,20.9,0
2003/5/2 17:30,22.6,0,46,0,22.8,0,,0,23.5,0,20.4,0
2003/5/2 17:45,22.5,0,46,0,23.8,0,95.6,0,23.6,0,20.5,0
2003/5/2 18:00,22.4,0,47,0,24.3,0,87.7,0,23.6,0,20.6,0
2003/5/2 18:15,22.3,0,46,0,25.5,0,62.4,0,23.7,0,20.7,0
2003/5/2 18:30,22.4,0,47,0,25.6,0,53.5,0,23.7,0,20.8,0
2003/5/2 18:45,22.2,0,48,0,25.5,0,47.3,0,23.7,0,20.8,0
2003/5/2 19:00,22.2,0,48,0,25.2,0,47.1,0,23.7,0,20.9,0
2003/5/2 19:15,21.4,0,49,0,25,0,48,0,23.8,0,21,0
2003/5/2 19:30,21.6,0,50,0,24.8,0,47.9,0,23.7,0,20,0
2003/5/2 19:45,21.8,0,51,0,24.8,0,48,0,23.7,0,20.1,0
2003/5/2 20:00,21.7,0,50,0,24.6,0,48,0,23.7,0,20.2,0
2003/5/2 20:15,21.7,0,51,0,24.6,0,48.4,0,23.7,0,20.3,0
2003/5/2 20:30,21.8,0,52,0,24.6,0,49.5,0,23.7,0,20.4,0
2003/5/2 20:45,21.8,0,51,0,24.6,0,50,0,23.8,0,20.5,0
2003/5/2 21:00,21.7,0,51,0,24.6,0,50.2,0,23.8,0,20.6,0
2003/5/2 21:15,21.7,0,53,0,24.6,0,50.4,0,23.8,0,20.7,0
2003/5/2 21:30,21.6,0,54,0,24.5,0,50.2,0,23.8,0,20.8,0
2003/5/2 21:45,21.5,0,55,0,24.5,0,50.3,0,23.8,0,20.9,0
2003/5/2 22:00,21.4,0,55,0,24.5,0,50.7,0,23.8,0,21,0
2003/5/2 22:15,21.2,0,55,0,24.4,0,50.5,0,23.7,0,21.1,0
2003/5/2 22:30,21.1,0,55,0,24.4,0,50.5,0,23.7,0,19.5,0
2003/5/2 22:45,20.7,0,55,0,24.4,0,50.4,0,23.7,0,19.6,0
2003/5/2 23:00,20.9,0,55,0,24.4,0,50.6,0,23.7,0,19.7,0
2003/5/2 23:15,20.8,0,54,0,24.4,0,50.1,0,23.7,0,19.8,0
2003/5/2 23:30,20.6,0,56,0,24.4,0,50.1,0,23.6,0,19.9,0
2003/5/2 23:45,20.4,0,58,0,24.4,0,50.1,0,23.6,0,20,0
2003/5/3 0:00,20.4,0,58,0,24.4,0,50.3,0,23.6,0,20.1,0
2003/5/3 0:15,20.4,0,58,0,24.4,0,50.4,0,23.6,0,20.2,0
2003/5/3 0:30,20.1,0,57,0,24.4,0,50.4,0,23.6,0,20.3,0
2003/5/3 0:45,20,0,56,0,24.3,0,50.2,0,23.6,0,20.4,0
2003/5/3 1:00,20,0,57,0,24.3,0,50.1,0,23.6,0,20.9,0
2003/5/3 1:15,19.9,0,57,0,24.3,0,50,0,23.6,0,21.1,0
2003/5/3 1:30,19.8,0,55,0,24.3,0,50.3,0,23.6,0,21.1,0
2003/5/3 1:45,19.4,0,56,0,24.1,0,49.6,0,23.6,0,21.2,0
2003/5/3 2:00,19.2,0,56,0,24.2,0,49.8,0,23.5,0,21.3,0
2003/5/3 2:15,19.2,0,56,0,24.3,0,49.8,0,23.5,0,21.4,0
2003/5/3 2:30,19.1,0,56,0,24.2,0,49.6,0,23.5,0,18.5,0
2003/5/3 2:45,19,0,56,0,24.3,0,49.4,0,23.5,0,18.7,0
2003/5/3 3:00,19,0,57,0,24.3,0,49.7,0,23.5,0,18.8,0
2003/5/3 3:15,19,0,57,0,24.3,0,49.6,0,23.4,0,18.9,0
2003/5/3 3:30,18.9,0,58,0,24.3,0,49.6,0,23.4,0,19,0
2003/5/3 3:45,18.8,0,58,0,24.3,0,49.4,0,23.4,0,19.2,0
2003/5/3 4:00,18.8,0,58,0,24.2,0,49.7,0,23.3,0,19.3,0
2003/5/3 4:15,18.5,0,59,0,24.2,0,49.5,0,23.3,0,19.4,0
2003/5/3 4:30,18.5,0,60,0,24.2,0,49.5,0,23.3,0,19.5,0
2003/5/3 4:45,18.3,0,60,0,24.2,0,49.7,0,23.3,0,19.6,0
2003/5/3 5:00,18.1,0,61,0,24.3,0,49.7,0,23.2,0,19.7,0
2003/5/3 5:15,18.2,0,61,0,24.2,0,49.7,0,23.2,0,19.8,0
2003/5/3 5:30,18,0,62,0,24.2,0,49.6,0,23.2,0,19.9,0
2003/5/3 5:45,17.9,0,62,0,24.2,0,49.6,0,23.2,0,19.9,0
2003/5/3 6:00,17.9,0,62,0,24.2,0,49.6,0,23.1,0,20,0
2003/5/3 6:15,17.9,0,62,0,24.1,0,49.5,0,23.1,0,20.1,0
2003/5/3 6:30,18.1,0,62,0,24.1,0,49.5,0,23.2,0,20.2,0
2003/5/3 6:45,18.3,0,61,0,24.1,0,49.5,0,23.3,0,20.3,0
2003/5/3 7:00,18.7,0,60,0,24,0,49.5,0,23.4,0,20.4,0
2003/5/3 7:15,19.2,0,58,0,24,0,49.5,0,23.6,0,20.5,0
2003/5/3 7:30,19.9,0,56,0,24.1,0,49.5,0,23.7,0,20.6,0
2003/5/3 7:45,20.8,0,53,0,24.1,0,49.8,0,23.9,0,20.7,0
2003/5/3 8:00,22,0,49,0,24.1,0,54.7,0,24.1,0,20.8,0
2003/5/3 8:15,25.4,0,39,0,24,0,59.2,0,24.2,0,20.9,0
2003/5/3 8:30,28.2,0,32,0,23.9,0,57.3,0,24.3,0,19.7,0
2003/5/3 8:45,31.5,0,28,0,23.9,0,56.2,0,24.4,0,19.9,0
2003/5/3 9:00,33.9,0,22,0,24,0,55.8,0,24.4,0,19.9,0
2003/5/3 9:15,34.8,0,20,0,24.1,0,54.4,0,24.4,0,20,0
2003/5/3 9:30,36.4,0,18,0,24.2,0,55,0,24.3,0,20.2,0
2003/5/3 9:45,36.6,0,17,0,24.3,0,54.2,0,24.3,0,20.3,0
2003/5/3 10:00,37.7,0,16,0,24.2,0,52.9,0,24.3,0,18.6,0
2003/5/3 10:15,37,0,16,0,24.2,0,50.1,0,24.3,0,18.8,0
2003/5/3 10:30,30.3,0,26,0,24.2,0,49.8,0,24.2,0,18.9,0
2003/5/3 10:45,27.8,0,30,0,24.2,0,49.2,0,24.2,0,19,0
2003/5/3 11:00,27,0,33,0,24.2,0,49,0,24.1,0,19.1,0
2003/5/3 11:15,26,0,33,0,24.2,0,48.9,0,24.1,0,19.2,0
2003/5/3 11:30,25.8,0,36,0,24.2,0,48.7,0,24.1,0,19.3,0
2003/5/3 11:45,25.7,0,37,0,24.1,0,48.2,0,24,0,19.4,0
2003/5/3 12:00,25.4,0,36,0,24.2,0,48.2,0,24,0,19.5,0
2003/5/3 12:15,25.2,0,36,0,24.1,0,48,0,24,0,19.6,0
2003/5/3 12:30,24.9,0,39,0,24.1,0,47.8,0,24,0,19.7,0
2003/5/3 12:45,24.8,0,40,0,24.2,0,47.9,0,24,0,19.8,0
2003/5/3 13:00,24.5,0,40,0,24.1,0,47.6,0,24,0,19.9,0
2003/5/3 13:15,24.3,0,40,0,24.2,0,47.8,0,24,0,19.9,0
2003/5/3 13:30,24.2,0,39,0,24.2,0,47.5,0,23.9,0,20,0
2003/5/3 13:45,24.2,0,39,0,24.2,0,47.1,0,23.9,0,20.1,0
2003/5/3 14:00,24.1,0,38,0,24.2,0,46.6,0,23.9,0,20.2,0
2003/5/3 14:15,24.2,0,38,0,24.3,0,46.5,0,23.9,0,20.3,0
2003/5/3 14:30,24.2,0,40,0,24.3,0,46.5,0,23.9,0,20.3,0
2003/5/3 14:45,24.2,0,35,0,24.4,0,46.4,0,23.9,0,20.4,0
2003/5/3 15:00,24.2,0,39,0,24.4,0,45.7,0,23.9,0,20.5,0
2003/5/3 15:15,24.1,0,40,0,24.5,0,46.7,0,23.9,0,20.6,0
2003/5/3 15:30,24,0,40,0,24.6,0,48.1,0,23.9,0,20.7,0
2003/5/3 15:45,24.1,0,40,0,24.6,0,49.5,0,23.9,0,20.7,0
2003/5/3 16:00,24.1,0,39,0,24.7,0,48.1,0,23.9,0,20.8,0
2003/5/3 16:15,24,0,40,0,24.9,0,46.2,0,23.9,0,20.8,0
2003/5/3 16:30,23.9,0,43,0,25.2,0,45.7,0,23.9,0,20.9,0
2003/5/3 16:45,24,0,41,0,25.5,0,45.6,0,24,0,21,0
2003/5/3 17:00,24.1,0,41,0,25.6,0,45.4,0,24,0,21,0
2003/5/3 17:15,24,0,42,0,25.8,0,44.8,0,24,0,21.1,0
2003/5/3 17:30,23.9,0,43,0,25.9,0,44.7,0,24.1,0,21.1,0
2003/5/3 17:45,23.9,0,43,0,25.8,0,45.5,0,24.1,0,20.4,0
2003/5/3 18:00,23.8,0,45,0,25.6,0,45.9,0,24.2,0,20.6,0
2003/5/3 18:15,23.6,0,44,0,25.3,0,47.5,0,24.3,0,20.7,0
2003/5/3 18:30,23.4,0,46,0,25,0,47.6,0,24.3,0,20.8,0
2003/5/3 18:45,23.2,0,46,0,24.7,0,48.2,0,24.3,0,20,0
2003/5/3 19:00,23.2,0,48,0,24.7,0,48.1,0,24.3,0,20.1,0
2003/5/3 19:15,23,0,49,0,24.7,0,48.5,0,24.2,0,20.2,0
2003/5/3 19:30,22.9,0,49,0,24.7,0,48.6,0,24.2,0,20.3,0
2003/5/3 19:45,22.8,0,49,0,24.6,0,48.7,0,24.1,0,20.4,0
2003/5/3 20:00,22.8,0,49,0,24.5,0,48.7,0,24.1,0,20.5,0
2003/5/3 20:15,22.8,0,49,0,24.6,0,48.6,0,24.1,0,20,0
2003/5/3 20:30,22.8,0,49,0,24.6,0,48.7,0,24.1,0,20,0
2003/5/3 20:45,22.8,0,50,0,24.6,0,48.8,0,24.1,0,20.1,0
2003/5/3 21:00,22.6,0,50,0,24.7,0,48.8,0,24.1,0,20.2,0
2003/5/3 21:15,22.7,0,53,0,24.7,0,50.2,0,24.1,0,20.3,0
2003/5/3 21:30,22.8,0,52,0,24.7,0,49.9,0,24.1,0,20.4,0
2003/5/3 21:45,22.8,0,52,0,24.7,0,49.9,0,24.1,0,20.5,0
2003/5/3 22:00,22.5,0,51,0,24.7,0,49.8,0,24,0,20.6,0
2003/5/3 22:15,22.2,0,53,0,24.7,0,49.7,0,24,0,20.7,0
2003/5/3 22:30,22.6,0,54,0,24.7,0,49.8,0,24,0,20.8,0
2003/5/3 22:45,22.3,0,55,0,24.7,0,50.2,0,24,0,20.9,0
2003/5/3 23:00,22.1,0,54,0,24.7,0,50,0,24,0,20.9,0
2003/5/3 23:15,22,0,53,0,24.7,0,50.3,0,24,0,21,0
2003/5/3 23:30,22,0,53,0,24.7,0,50.5,0,23.9,0,21.1,0
2003/5/3 23:45,22,0,52,0,24.7,0,50.5,0,23.9,0,21.2,0
2003/5/4 0:00,21.8,0,52,0,24.7,0,50.3,0,23.9,0,21.2,0
2003/5/4 0:15,21.5,0,52,0,24.6,0,50.1,0,23.9,0,21.3,0
2003/5/4 0:30,21.4,0,54,0,24.6,0,49.8,0,23.9,0,21.4,0
2003/5/4 0:45,21.5,0,56,0,24.6,0,50,0,23.9,0,21.4,0
2003/5/4 1:00,21.3,0,56,0,24.6,0,50.1,0,23.9,0,21.5,0
2003/5/4 1:15,21.2,0,56,0,24.6,0,50,0,23.8,0,21.5,0
2003/5/4 1:30,21.1,0,57,0,24.6,0,50,0,23.8,0,21.6,0
2003/5/4 1:45,20.9,0,58,0,24.6,0,50,0,23.8,0,21.7,0
2003/5/4 2:00,20.9,0,57,0,24.6,0,50.1,0,23.8,0,21.7,0
2003/5/4 2:15,20.9,0,55,0,24.6,0,50.3,0,23.8,0,22,0
2003/5/4 2:30,20.7,0,49,0,24.6,0,50.2,0,23.8,0,22.1,0
2003/5/4 2:45,20.5,0,48,0,24.5,0,49.7,0,23.8,0,22.1,0
2003/5/4 3:00,20.4,0,50,0,24.5,0,49.3,0,23.8,0,22.2,0
2003/5/4 3:15,20.4,0,51,0,24.5,0,49,0,23.7,0,22.2,0
2003/5/4 3:30,20.4,0,49,0,24.5,0,49,0,23.7,0,21.3,0
2003/5/4 3:45,20.4,0,49,0,24.5,0,48.8,0,23.7,0,21.3,0
2003/5/4 4:00,20.2,0,49,0,24.5,0,48.7,0,23.7,0,21.4,0
2003/5/4 4:15,20.4,0,49,0,24.5,0,48.7,0,23.6,0,21.5,0
2003/5/4 4:30,20.2,0,48,0,24.5,0,48.5,0,23.6,0,21.5,0
2003/5/4 4:45,20.1,0,47,0,24.5,0,48.3,0,23.6,0,21.6,0
2003/5/4 5:00,20.3,0,48,0,24.4,0,48.2,0,23.6,0,21.7,0
2003/5/4 5:15,20.5,0,51,0,24.4,0,48,0,23.6,0,21.7,0
2003/5/4 5:30,20.2,0,49,0,24.4,0,48,0,23.6,0,21.8,0
2003/5/4 5:45,20,0,49,0,24.4,0,47.5,0,23.6,0,21.9,0
2003/5/4 6:00,20.2,0,49,0,24.4,0,47.7,0,23.6,0,21.9,0
2003/5/4 6:15,20.1,0,49,0,24.4,0,47.7,0,23.6,0,22,0
2003/5/4 6:30,20.4,0,49,0,24.4,0,47.3,0,23.6,0,22.1,0
2003/5/4 6:45,20.2,0,49,0,24.4,0,47.7,0,23.6,0,22.1,0
2003/5/4 7:00,20.8,0,48,0,24.5,0,47.9,0,23.6,0,22.2,0
2003/5/4 7:15,20.9,0,49,0,24.5,0,48,0,23.6,0,22.2,0
2003/5/4 7:30,21.3,0,49,0,24.5,0,48,0,23.7,0,19.7,0
2003/5/4 7:45,21.4,0,48,0,24.5,0,48.1,0,23.7,0,19.8,0
2003/5/4 8:00,21.9,0,47,0,24.5,0,47.3,0,23.8,0,19.9,0
2003/5/4 8:15,22.8,0,45,0,24.4,0,47.2,0,23.8,0,19.5,0
2003/5/4 8:30,23.3,0,43,0,24.5,0,47.2,0,23.9,0,19.6,0
2003/5/4 8:45,24.2,0,41,0,24.5,0,47.2,0,23.9,0,19.7,0
2003/5/4 9:00,26.9,0,34,0,24.4,0,46.6,0,23.9,0,19.8,0
2003/5/4 9:15,29.7,0,25,0,24.4,0,46.1,0,23.9,0,19.9,0
2003/5/4 9:30,32.2,0,22,0,24.4,0,45.6,0,24,0,19.9,0
2003/5/4 9:45,33.1,0,21,0,24.3,0,45.3,0,24,0,20.1,0
2003/5/4 10:00,33.3,0,19,0,24.3,0,45.1,0,24,0,19.7,0
2003/5/4 10:15,30,0,25,0,24.4,0,45.1,0,24,0,19.8,0
2003/5/4 10:30,28.4,0,27,0,24.4,0,44.8,0,24,0,20.3,0
2003/5/4 10:45,27.3,0,32,0,24.4,0,44.7,0,24,0,20.3,0
2003/5/4 11:00,26.6,0,35,0,24.5,0,44.7,0,24,0,20.4,0
2003/5/4 11:15,26.5,0,35,0,24.6,0,45.7,0,24,0,20.8,0
2003/5/4 11:30,26.2,0,36,0,24.7,0,46.1,0,24.1,0,20.1,0
2003/5/4 11:45,25.9,0,37,0,24.8,0,46.3,0,24.1,0,20.2,0
2003/5/4 12:00,26,0,40,0,24.8,0,46.7,0,24.2,0,19.6,0
2003/5/4 12:15,25.8,0,39,0,24.9,0,47.3,0,24.2,0,19.8,0
2003/5/4 12:30,25.4,0,41,0,24.9,0,47.3,0,24.3,0,19.8,0
2003/5/4 12:45,25.2,0,42,0,24.9,0,47.5,0,24.3,0,19.9,0
2003/5/4 13:00,24.9,0,42,0,24.8,0,47.6,0,24.3,0,20,0
2003/5/4 13:15,24.5,0,44,0,24.8,0,47.5,0,24.3,0,20.1,0
2003/5/4 13:30,24.7,0,45,0,24.8,0,47.6,0,24.3,0,20.2,0
2003/5/4 13:45,24.5,0,48,0,24.8,0,47.8,0,24.3,0,20.3,0
2003/5/4 14:00,24.4,0,48,0,24.8,0,48.2,0,24.3,0,20.4,0
2003/5/4 14:15,24.1,0,48,0,24.8,0,49,0,24.3,0,20.5,0
2003/5/4 14:30,24.1,0,50,0,24.8,0,49.2,0,24.3,0,20.6,0
2003/5/4 14:45,24,0,51,0,24.8,0,49.8,0,24.3,0,20.7,0
2003/5/4 15:00,23.7,0,50,0,24.8,0,49.5,0,24.3,0,20.8,0
2003/5/4 15:15,23.7,0,50,0,24.8,0,49.8,0,24.3,0,20.9,0
2003/5/4 15:30,23.8,0,52,0,24.7,0,48.9,0,24.3,0,21,0
2003/5/4 15:45,23.5,0,53,0,24.7,0,49.2,0,24.3,0,21,0
2003/5/4 16:00,23.3,0,54,0,24.7,0,49.7,0,24.3,0,21.1,0
2003/5/4 16:15,23.2,0,55,0,24.7,0,49.7,0,24.3,0,21.2,0
2003/5/4 16:30,23.1,0,57,0,24.6,0,49.8,0,24.3,0,21.3,0
2003/5/4 16:45,23.1,0,58,0,24.6,0,50.6,0,24.3,0,21.3,0
2003/5/4 17:00,23.1,0,59,0,24.6,0,50.8,0,24.3,0,21.4,0
2003/5/4 17:15,22.8,0,61,0,24.6,0,51,0,24.3,0,21.5,0
2003/5/4 17:30,22.8,0,62,0,24.6,0,50.6,0,24.3,0,21.5,0
2003/5/4 17:45,22.6,0,64,0,24.5,0,51,0,24.3,0,21.6,0
2003/5/4 18:00,22.7,0,63,0,24.5,0,52.7,0,24.2,0,21.6,0
2003/5/4 18:15,22.1,0,65,0,24.5,0,52.4,0,24.2,0,21.7,0
2003/5/4 18:30,22.1,0,66,0,24.5,0,53.4,0,24.2,0,21.8,0
2003/5/4 18:45,22.1,0,66,0,24.4,0,53.9,0,24.2,0,21.8,0
2003/5/4 19:00,22.2,0,69,0,24.4,0,54,0,24.2,0,21.9,0
2003/5/4 19:15,22.4,0,68,0,24.4,0,54.3,0,24.2,0,21.9,0
2003/5/4 19:30,21.9,0,69,0,24.4,0,54.4,0,24.2,0,22,0
2003/5/4 19:45,21.8,0,70,0,24.4,0,54.3,0,24.2,0,22,0
2003/5/4 20:00,21.7,0,71,0,24.4,0,53.9,0,24.2,0,22,0
2003/5/4 20:15,21.6,0,72,0,24.5,0,53.2,0,24.3,0,22.1,0
2003/5/4 20:30,21.4,0,72,0,24.4,0,55.4,0,24.3,0,22.5,0
2003/5/4 20:45,21.4,0,73,0,24.3,0,56.3,0,24.3,0,22.5,0
2003/5/4 21:00,21.4,0,73,0,24.4,0,56.8,0,24.3,0,22.6,0
2003/5/4 21:15,21.3,0,73,0,24.2,0,57.8,0,24.3,0,22.6,0
2003/5/4 21:30,21.7,0,72,0,24.4,0,56.8,0,24.3,0,22.6,0
2003/5/4 21:45,21.3,0,73,0,24.4,0,56.7,0,24.3,0,22.7,0
2003/5/4 22:00,21.5,0,73,0,24.4,0,57.7,0,24.3,0,22.7,0
2003/5/4 22:15,21.4,0,72,0,24.3,0,57.5,0,24.3,0,22.7,0
2003/5/4 22:30,21.2,0,72,0,24.4,0,56.7,0,24.3,0,22.8,0
2003/5/4 22:45,21.3,0,73,0,24.3,0,57.7,0,24.3,0,22.8,0
2003/5/4 23:00,21.3,0,74,0,24.4,0,56.3,0,24.3,0,22.8,0
2003/5/4 23:15,21.2,0,73,0,24.3,0,57.1,0,24.3,0,22,0
2003/5/4 23:30,21.1,0,73,0,24.2,0,57.7,0,24.3,0,22.1,0
2003/5/4 23:45,20.9,0,74,0,24.2,0,57.6,0,24.3,0,22.1,0
2003/5/5 0:00,20.8,0,75,0,24.2,0,57.7,0,24.3,0,20.9,0
2003/5/5 0:15,20.9,0,75,0,24.3,0,58.1,0,24.3,0,21,0
2003/5/5 0:30,20.8,0,74,0,24.3,0,57.9,0,24.3,0,21,0
2003/5/5 0:45,20.8,0,74,0,24.3,0,57.9,0,24.3,0,21.1,0
2003/5/5 1:00,20.9,0,75,0,24.3,0,58,0,24.3,0,21.2,0
2003/5/5 1:15,20.8,0,74,0,24.2,0,58.1,0,24.3,0,21.3,0
2003/5/5 1:30,21,0,74,0,24.3,0,57.4,0,24.3,0,21.4,0
2003/5/5 1:45,20.8,0,75,0,24.4,0,57.4,0,24.3,0,21.4,0
2003/5/5 2:00,20.7,0,76,0,24.3,0,58.5,0,24.2,0,21.5,0
2003/5/5 2:15,20.8,0,76,0,24.2,0,58.6,0,24.2,0,21.2,0
2003/5/5 2:30,20.7,0,76,0,24.1,0,58.5,0,24.3,0,21.3,0
2003/5/5 2:45,20.5,0,78,0,24.2,0,57.4,0,24.3,0,20.4,0
2003/5/5 3:00,20.5,0,78,0,24.2,0,57.7,0,24.3,0,20.5,0
2003/5/5 3:15,20.6,0,77,0,24.2,0,57.8,0,24.3,0,20.6,0
2003/5/5 3:30,20.5,0,78,0,24.2,0,57.4,0,24.3,0,20.7,0
2003/5/5 3:45,20.4,0,75,0,24.2,0,57.7,0,24.3,0,20.8,0
2003/5/5 4:00,20.3,0,76,0,24.2,0,57.6,0,24.2,0,20.9,0
2003/5/5 4:15,20.2,0,77,0,24.2,0,57.5,0,24.2,0,21,0
2003/5/5 4:30,20.2,0,76,0,24.2,0,57.4,0,24.2,0,21,0
2003/5/5 4:45,20.4,0,76,0,24.2,0,57.3,0,24.2,0,21.1,0
2003/5/5 5:00,20.2,0,77,0,24.2,0,57.4,0,24.2,0,21.2,0
2003/5/5 5:15,20.2,0,78,0,24.1,0,57.7,0,24.2,0,21.3,0
2003/5/5 5:30,19.9,0,78,0,24.1,0,57.7,0,24.2,0,21.4,0
2003/5/5 5:45,20.1,0,78,0,24.1,0,57.6,0,24.2,0,21.4,0
2003/5/5 6:00,20.1,0,78,0,24.1,0,57.7,0,24.2,0,21.5,0
2003/5/5 6:15,20,0,78,0,24.1,0,57.8,0,24.2,0,21.6,0
2003/5/5 6:30,20.1,0,77,0,24.1,0,57.8,0,24.2,0,21.6,0
2003/5/5 6:45,19.9,0,78,0,24.1,0,57.8,0,24.2,0,21.7,0
2003/5/5 7:00,20.2,0,77,0,24.1,0,57.8,0,24.1,0,21.8,0
2003/5/5 7:15,20.5,0,75,0,24.1,0,57.6,0,24.1,0,21.8,0
2003/5/5 7:30,20.6,0,74,0,24.2,0,57.3,0,24.1,0,21.9,0
2003/5/5 7:45,20.7,0,73,0,24.2,0,57.3,0,24.2,0,22,0
2003/5/5 8:00,20.9,0,73,0,24.2,0,57.6,0,24.2,0,22,0
2003/5/5 8:15,21.3,0,71,0,24.2,0,57.7,0,24.2,0,22.1,0
2003/5/5 8:30,21.8,0,69,0,24.2,0,57.5,0,24.2,0,22.1,0
2003/5/5 8:45,22.6,0,64,0,24.2,0,57.3,0,24.2,0,22.2,0
2003/5/5 9:00,22.5,0,65,0,24.3,0,56.8,0,24.3,0,20.5,0
2003/5/5 9:15,28,0,47,0,24.4,0,59.6,0,24.3,0,20.6,0
2003/5/5 9:30,30.9,0,38,0,24.4,0,58.8,0,24.4,0,20.7,0
2003/5/5 9:45,32.7,0,34,0,24.4,0,58.2,0,24.4,0,20.8,0
2003/5/5 10:00,31.9,0,34,0,24.4,0,58.3,0,24.4,0,20.9,0
2003/5/5 10:15,33.2,0,31,0,24.3,0,58.2,0,24.5,0,19.7,0
2003/5/5 10:30,27.5,0,45,0,24.3,0,57.7,0,24.5,0,19.8,0
2003/5/5 10:45,25.3,0,51,0,24.3,0,57.7,0,24.5,0,19.9,0
2003/5/5 11:00,24.5,0,53,0,24.3,0,57.6,0,24.5,0,20,0
2003/5/5 11:15,24.1,0,56,0,24.3,0,57.3,0,24.5,0,20.1,0
2003/5/5 11:30,24,0,55,0,24.3,0,57.3,0,24.5,0,20.2,0
2003/5/5 11:45,24,0,55,0,24.3,0,57.2,0,24.5,0,20.3,0
2003/5/5 12:00,23.9,0,54,0,24.3,0,57.2,0,24.5,0,20.4,0
2003/5/5 12:15,23.5,0,56,0,24.3,0,57.1,0,24.4,0,20.5,0
2003/5/5 12:30,23.1,0,58,0,24.3,0,57.1,0,24.4,0,20.6,0
2003/5/5 12:45,23,0,57,0,24.3,0,57,0,24.4,0,20.7,0